Home   Weather   Germany   Königs Wusterhausen   Past weeks
Flag for Germany

Past Weather in Königs Wusterhausen, Brandenburg, Germany — Yesterday and Last 2 Weeks

Currently: 36 °F. Clear. (Weather station: Berlin-Schoenefeld, Germany). See more current weather

Past Weather in Königs Wusterhausen — Graph

°F

Königs Wusterhausen Temperature Yesterday

Maximum temperature yesterday: 39 °F (at 12:50 pm)
Minimum temperature yesterday: 36 °F (at 4:50 am)
Average temperature yesterday: 37 °F

High & Low Weather Summary for the Past Weeks

 TemperatureHumidityPressure
High66 °F (Feb 24, 3:20 pm)100% (Feb 22, 6:50 am)30.66 "Hg (Feb 22, 6:50 am)
Low23 °F (Mar 6, 3:50 am)31% (Mar 8, 2:50 pm)30.01 "Hg (Mar 4, 4:20 pm)
Average41 °F79%30.36 "Hg
* Reported Feb 21 6:20 pm — Mar 8 6:20 pm, Königs Wusterhausen. Weather by CustomWeather, © 2021

Note: Actual official high and low records may vary slightly from our data, if they occured in-between our weather recording intervals... More about our weather records

Königs Wusterhausen Weather History for the Previous 24 Hours

Scroll right to see more
 ConditionsComfort  
Time TempWeatherWind HumidityBarometerVisibility
6:20 pm
Mon, Mar 8
39 °FClear.1 mph36%30.18 "Hg10 mi
5:50 pm39 °FPassing clouds.3 mph39%30.18 "HgN/A
5:20 pm41 °FSunny.2 mph33%30.18 "Hg10 mi
4:50 pm43 °FPassing clouds.5 mph34%30.18 "HgN/A
4:20 pm43 °FSunny.7 mph31%30.18 "Hg10 mi
3:50 pm43 °FPassing clouds.3 mph31%30.18 "HgN/A
3:20 pm43 °FSunny.3 mph34%30.18 "Hg10 mi
2:50 pm43 °FPassing clouds.5 mph31%30.18 "HgN/A
2:20 pm43 °FPassing clouds.6 mph34%30.18 "HgN/A
1:50 pm43 °FSunny.2 mph34%30.18 "Hg10 mi
1:20 pm41 °FPassing clouds.6 mph33%30.21 "HgN/A
12:50 pm41 °FSunny.6 mph36%30.21 "Hg10 mi
12:20 pm41 °FPassing clouds.8 mph33%30.21 "HgN/A
11:50 am41 °FPassing clouds.8 mph33%30.21 "HgN/A
11:20 am41 °FSunny.9 mph39%30.21 "Hg10 mi
10:50 am39 °FPassing clouds.9 mph45%30.21 "HgN/A
10:20 am37 °FPassing clouds.8 mph52%30.21 "HgN/A
9:50 am37 °FPassing clouds.6 mph60%30.18 "HgN/A
9:20 am36 °FSunny.7 mph70%30.18 "Hg10 mi
8:50 am36 °FPassing clouds.6 mph70%30.18 "HgN/A
8:20 am34 °FSunny.5 mph75%30.18 "Hg10 mi
7:50 am32 °FSunny.6 mph87%30.15 "Hg10 mi
7:20 am32 °FSunny.3 mph87%30.15 "Hg10 mi
6:50 am28 °FSunny.3 mph93%30.15 "Hg10 mi
5:50 am30 °FClear.5 mph93%30.12 "Hg10 mi
5:20 am32 °FClear.6 mph87%30.09 "Hg10 mi
4:50 am32 °FClear.6 mph87%30.09 "Hg10 mi
4:20 am34 °FClear.8 mph81%30.09 "Hg10 mi
3:50 am34 °FClear.10 mph87%30.09 "Hg10 mi
3:20 am36 °FClear.7 mph87%30.07 "Hg10 mi
2:50 am36 °FClear.7 mph87%30.07 "Hg10 mi
2:20 am36 °FClear.5 mph87%30.07 "Hg10 mi
1:50 am36 °FPassing clouds.6 mph93%30.07 "HgN/A
1:20 am36 °FPassing clouds.7 mph93%30.07 "HgN/A
12:50 am36 °FPassing clouds.6 mph93%30.07 "HgN/A
12:20 am36 °FPassing clouds.8 mph93%30.07 "HgN/A
11:50 pm
Sun, Mar 7
36 °FPassing clouds.9 mph93%30.07 "HgN/A
11:20 pm36 °FLight rain. Passing clouds.12 mph93%30.07 "HgN/A
10:50 pm37 °FLight rain. Overcast.10 mph87%30.07 "HgN/A
10:20 pm37 °FLight rain. Overcast.13 mph81%30.07 "HgN/A
9:50 pm37 °FOvercast.12 mph75%30.07 "HgN/A
9:20 pm37 °FOvercast.13 mph75%30.07 "HgN/A
8:50 pm37 °FOvercast.13 mph75%30.07 "HgN/A
8:20 pm37 °FPartly cloudy.13 mph70%30.07 "HgN/A
7:50 pm37 °FPassing clouds.12 mph70%30.07 "HgN/A
7:20 pm37 °FPassing clouds.13 mph70%30.07 "HgN/A
Weather by CustomWeather, © 2021

See weather overview